Regional Weather Roundup
Issued by NWS

Home | Current Version | Previous Version | Graphics & Text | Print | Product List | Glossary On
Versions: 1 2 3 4 5 6 7 8 9 10 11 12 13 14 15 16 17 18 19 20 21 22 23 24 25 26 27 28 29 30 31 32 33 34 35 36 37 38 39 40 41 42 43 44 45 46 47 48 49 50
616
ASUS43 KDTX 220910
RWRMI
MICHIGAN HOURLY REGIONAL WEATHER ROUNDUP
NATIONAL WEATHER SERVICE DETROIT/PONTIAC MI
ISSUED BY NATIONAL WEATHER SERVICE GRAND RAPIDS MI
500 AM EDT SAT JUL 22 2017

NOTE: "FAIR" INDICATES FEW OR NO CLOUDS BELOW 12,000 FEET WITH NO
SIGNIFICANT WEATHER AND/OR OBSTRUCTION TO VISIBILITY.

MIZ047>049-052>055-059>063-066>070-074>076-081>083-221000-
SOUTHEAST LOWER MICHIGAN

CITY           SKY/WX    TMP DP  RH WIND       PRES   REMARKS
ADRIAN         LGT RAIN  73  70  90 SW6       29.89F FOG
ALMA           CLOUDY    71  69  94 NW6       29.86S FOG
ANN ARBOR      CLOUDY    73  71  93 S5        29.86F
BAD AXE        CLOUDY    69  66  90 CALM      29.87S
DETROIT CITY   CLOUDY    77  71  82 S7        29.87S
DETROIT        CLOUDY    76  70  82 S6        29.87F
FLINT          CLOUDY    74  68  81 S5        29.85F
GROSSE ILE     MOCLDY    77  72  82 SW7       29.86S
HILLSDALE      RAIN      70  68  94 S5        29.88F
HOWELL         CLOUDY    74  68  81 S3        29.86S

CITY           SKY/WX    TMP DP  RH WIND       PRES   REMARKS
JACKSON        LGT RAIN  73  69  87 S7        29.86F
LANSING        CLOUDY    75  65  70 SW5       29.85F
MASON          CLOUDY    72  68  86 CALM      29.86S
MONROE         DRIZZLE   74  70  88 S5        29.87R
MT. CLEMENS    MOCLDY    75  71  86 S5        29.85F
PONTIAC        CLOUDY    76  70  82 S7        29.86F
PORT HOPE        N/A     71  67  87 VRB3      29.85F
PORT HURON     CLOUDY    73  68  83 CALM      29.87S
TRI CITIES     LGT RAIN  74  71  91 SW3       29.87S
YPSILANTI      CLOUDY    76  70  82 S8        29.87F
$$
MIZ043>046-050>051-056>058-064>065-071>073-077>080-221000-
SOUTHWEST LOWER MICHIGAN

CITY           SKY/WX    TMP DP  RH WIND       PRES   REMARKS
BATTLE CREEK   CLOUDY    70  68  93 S14       29.85F
BENTON HARBOR  CLOUDY    71  69  93 S10       29.80F
BIG RAPIDS     RAIN      66  63  91 NW5       29.87S
COLDWATER      RAIN      69  69 100 SE6       29.88S
HOLLAND        CLOUDY    70  66  87 NE3       29.83F
GRAND RAPIDS   CLOUDY    70  68  93 SE6       29.82F
KALAMAZOO      CLOUDY    72  68  87 S9        29.84F
MARSHALL       LGT RAIN  70  70  99 S7        29.86F
MOUNT PLEASANT HVY RAIN  72  66  83 SW6       29.87R
MUSKEGON       CLOUDY    71  68  90 SE5       29.82F
STURGIS        RAIN      70  69  98 S6        29.86S
$$
MIZ016>042-221000-
NORTHERN LOWER MICHIGAN

CITY           SKY/WX    TMP DP  RH WIND       PRES   REMARKS
ALPENA         CLOUDY    67  62  84 SW7       29.89S
BEAVER ISLAND  CLOUDY    66  64  94 CALM      29.87S
BELLAIRE       CLOUDY    66  63  92 CALM      29.86S
CADILLAC       CLOUDY    69  64  83 CALM      29.86F
CHARLEVOIX     CLOUDY    69  66  90 SE3       29.89S
GAYLORD        CLOUDY    69  62  78 CALM      29.90F
HOUGHTON LAKE  CLOUDY    68  65  90 N6        29.87F
MANISTEE       CLOUDY    68  66  93 CALM      29.84F
OSCODA         CLOUDY    69  67  92 W9        29.87S
PELLSTON       CLOUDY    63  61  93 CALM      29.88F
TRAVERSE CITY  CLOUDY    73  62  68 VRB6      29.82F
LUDINGTON      DRIZZLE   66  65  94 E7        29.83F
$$
MIZ007>008-015-221000-
EASTERN UPPER MICHIGAN

CITY           SKY/WX    TMP DP  RH WIND       PRES   REMARKS
KINROSS        PTCLDY    59  54  83 SW3       29.90R
MACKINAC ISLAN CLOUDY    67  59  74 E9        29.88S
NEWBERRY       CLOUDY    59  55  88 SE3       29.88F
S. S. MARIE    MOCLDY    61  55  81 CALM      29.87F
$$
MIZ004>006-011>014-085-221000-
CENTRAL UPPER MICHIGAN

CITY           SKY/WX    TMP DP  RH WIND       PRES   REMARKS
MANISTIQUE     CLOUDY    66  63  89 SE3       29.85F
ESCANABA       CLOUDY    66  63  90 S5        29.83F
MENOMINEE      CLOUDY    70  61  73 SW7       29.83R
SAWYER-GWINN   CLEAR     63  62  96 SE5       29.86S
$$
MIZ001>003-009>011-084-221000-
WESTERN UPPER MICHIGAN

CITY           SKY/WX    TMP DP  RH WIND       PRES   REMARKS
IRON MOUNTAIN  MOCLDY    64  61  90 SE6       29.82S
HOUGHTON       CLOUDY    62  51  67 E10       29.83R
COPPER HARBOR    N/A     66  54  65 SE5       29.82S
IRONWOOD       CLOUDY    65  64  97 SW3       29.82S FOG
$$

ABBREVIATIONS USED IN REMARKS
   TC - TEMPERATURE IN CELSIUS
  WCI - WIND CHILL INDEX
   HX - HEAT INDEX
  VSB - VISIBILITY





USA.gov is the U.S. government's official web portal to all federal, state and local government web resources and services.